Regional Weather Roundup
Issued by NWS

Home | Current Version | Previous Version | Graphics & Text | Print | Product List | Glossary On
Versions: 1 2 3 4 5 6 7 8 9 10 11 12 13 14 15 16 17 18 19 20 21 22 23 24 25 26 27 28 29 30 31 32 33 34 35 36 37 38 39 40 41 42 43 44 45 46 47 48 49 50
089
ASUS43 KFSD 221110
RWRSD

WEATHER ROUNDUP FOR SOUTH DAKOTA
NATIONAL WEATHER SERVICE SIOUX FALLS SD
600 AM CDT FRI SEP 22 2017

NOTE: "FAIR" INDICATES FEW OR NO CLOUDS BELOW 12,000 FEET WITH NO
SIGNIFICANT WEATHER AND/OR OBSTRUCTIONS TO VISIBILITY.


SDZ001>005-009-010-012>017-221200-
NORTHWEST AND NORTH CENTRAL SOUTH DAKOTA

CITY           SKY/WX    TMP DP  RH WIND       PRES   REMARKS
BUFFALO          N/A     52  37  56 NE20G26   29.75R
FAITH            N/A     54  43  66 N22G31    29.69F
MOBRIDGE       PTCLDY    60  51  72 NE18G30   29.64F
$$

SDZ012>016-024>037-041>051-057-063-072>074-221200-
SOUTHWEST AND SOUTH CENTRAL SOUTH DAKOTA

CITY           SKY/WX    TMP DP  RH WIND       PRES   REMARKS
RAPID CTY ARPT NOT AVBL
PIERRE         CLEAR     64  62  93 S5        29.57S
CUSTER         CLEAR     47  40  76 VRB6      29.80R
ELLSWORTH AFB  CLOUDY    53  37  56 NW25      29.75R
PHILIP         LGT RAIN  53  47  79 NW8       29.63R
PINE RIDGE     CLOUDY    48  41  76 W5        29.74R
SPEARFISH      CLOUDY    50  36  57 CALM      29.84S
WINNER         FAIR      76  67  73 S20       29.60R
$$

SDZ004>011-016>023-039-040-221200-
NORTHEAST SOUTH DAKOTA

CITY           SKY/WX    TMP DP  RH WIND       PRES   REMARKS
ABERDEEN       CLEAR     62  62 100 N8        29.67R
WATERTOWN      CLEAR     72  71  97 S10       29.70S
BROOKINGS      CLEAR     73  71  93 SE13      29.73S
SISSETON         N/A     68  67  96 S5        29.70S
$$

SDZ017-020-022-023-036>040-048>070-221200-
SOUTHEAST SOUTH DAKOTA

CITY           SKY/WX    TMP DP  RH WIND       PRES   REMARKS
SIOUX FALLS    CLEAR     77  73  87 S15G23    29.73R
HURON          CLEAR     74  71  91 SE14      29.63R
CHAMBERLAIN    CLEAR     79  70  74 SE16G24   29.60R
MITCHELL       CLEAR     77  71  82 S13       29.65R
YANKTON        CLEAR     77  71  82 S18G26    29.69S
$$

ABBREVIATIONS USED IN REMARKS
   TC - TEMPERATURE IN CELSIUS
  WCI - WIND CHILL INDEX
   HX - HEAT INDEX
  VSB - VISIBILITY





USA.gov is the U.S. government's official web portal to all federal, state and local government web resources and services.